FW5772 Weather Reports


time (UTC)temp
C
wind
direction
speed
KPH
gust
KPH
rain 1hr
cm
rain 24hr
cm
rain mn
cm
humidity
%
barometer
mb
20260906231526 30 296 25.7 38.6 0.00 0.00 0.00 23 1005.1
20260906230027 30 283 16.1 29.0 0.00 0.00 0.00 23 1004.9
20260906224526 30 319 17.7 27.4 0.00 0.00 0.00 24 1005.0
20260906223025 29 322 14.5 27.4 0.00 0.00 0.00 25 1005.0
20260906221525 30 338 16.1 24.1 0.00 0.00 0.00 25 1005.0
20260906220024 30 333 14.5 20.9 0.00 0.00 0.00 23 1004.9
20260906214528 31 346 12.9 19.3 0.00 0.00 0.00 21 1005.0
20260906213022 32 323 12.9 19.3 0.00 0.00 0.00 21 1005.2
20260906211519 30 307 12.9 20.9 0.00 0.00 0.00 21 1005.6
20260906210023 31 308 14.5 20.9 0.00 0.00 0.00 20 1005.7
20260906204520 31 321 14.5 22.5 0.00 0.00 0.00 21 1005.8
20260906203015 31 307 14.5 20.9 0.00 0.00 0.00 22 1005.9
20260906201526 31 300 14.5 22.5 0.00 0.00 0.00 22 1006.3
20260906200011 31 314 14.5 22.5 0.00 0.00 0.00 20 1006.4
20260906194509 31 322 12.9 19.3 0.00 0.00 0.00 20 1006.6
20260906193006 29 322 6.4 12.9 0.00 0.00 0.00 21 1006.8
20260906191505 28 317 6.4 12.9 0.00 0.00 0.00 21 1007.0
20260906190003 28 317 6.4 12.9 0.00 0.00 0.00 25 1007.3
20260906184503 27 315 8.0 16.1 0.00 0.00 0.00 25 1007.7
20260906183102 28 315 9.7 17.7 0.00 0.00 0.00 26 1007.8
20260906181602 28 306 11.3 17.7 0.00 0.00 0.00 25 1008.0
20260906180059 29 32 3.2 14.5 0.00 0.00 0.00 22 1008.2
20260906174608 30 71 1.6 16.1 0.00 0.00 0.00 22 1008.4
20260906173053 29 57 8.0 19.3 0.00 0.00 0.00 24 1008.6
20260906171549 28 88 9.7 16.1 0.00 0.00 0.00 24 1008.8
20260906170046 27 97 11.3 19.3 0.00 0.00 0.00 26 1009.0
20260906164544 26 92 9.7 17.7 0.00 0.00 0.00 26 1009.1
20260906163049 25 66 12.9 20.9 0.00 0.00 0.00 27 1009.2
20260906161547 26 122 11.3 24.1 0.00 0.00 0.00 27 1009.3
20260906160039 25 114 16.1 24.1 0.00 0.00 0.00 28 1009.3
20260906154542 25 118 17.7 25.7 0.00 0.00 0.00 28 1009.3
20260906153037 25 97 11.3 22.5 0.00 0.00 0.00 28 1009.4
20260906151536 23 78 11.3 19.3 0.00 0.00 0.00 31 1009.5
20260906150033 22 100 8.0 20.9 0.00 0.00 0.00 33 1009.7
20260906144534 21 94 14.5 20.9 0.00 0.00 0.00 34 1009.7
20260906143032 21 104 9.7 14.5 0.00 0.00 0.00 36 1009.7
20260906141530 20 98 11.3 17.7 0.00 0.00 0.00 39 1009.8
20260906140037 18 115 4.8 14.5 0.00 0.00 0.00 40 1009.8
20260906134529 18 107 9.7 14.5 0.00 0.00 0.00 40 1009.6
20260906133041 18 104 9.7 16.1 0.00 0.00 0.00 40 1009.5
20260906131527 18 122 8.0 17.7 0.00 0.00 0.00 40 1009.4
20260906130026 18 115 6.4 16.1 0.00 0.00 0.00 41 1009.3
20260906124525 18 119 6.4 12.9 0.00 0.00 0.00 41 1009.3
20260906123035 17 116 1.6 14.5 0.00 0.00 0.00 43 1009.1
20260906121521 17 116 9.7 17.7 0.00 0.00 0.00 43 1009.0
20260906120019 17 103 11.3 14.5 0.00 0.00 0.00 44 1009.1
20260906114521 18 134 6.4 11.3 0.00 0.00 0.00 42 1008.9
20260906113015 18 120 4.8 11.3 0.00 0.00 0.00 42 1008.8
20260906111513 18 118 9.7 14.5 0.00 0.00 0.00 41 1008.8
20260906110012 18 116 8.0 12.9 0.00 0.00 0.00 41 1008.6
20260906104509 18 127 4.8 8.0 0.00 0.00 0.00 41 1008.5
20260906103007 18 121 4.8 12.9 0.00 0.00 0.00 41 1008.3
20260906101506 18 117 6.4 11.3 0.00 0.00 0.00 40 1008.2
20260906100008 18 138 3.2 6.4 0.00 0.00 0.00 39 1008.3
20260906094505 18 138 1.6 4.8 0.00 0.00 0.00 41 1008.1
20260906093004 18 138 0.0 4.8 0.00 0.00 0.00 39 1008.1
20260906091600 19 138 3.2 4.8 0.00 0.00 0.00 38 1008.0
20260906090112 20 138 4.8 11.3 0.00 0.00 0.00 37 1008.2
20260906084606 20 153 6.4 11.3 0.00 0.00 0.00 36 1008.2
20260906083053 20 168 6.4 11.3 0.00 0.00 0.00 37 1008.2
20260906081555 20 217 1.6 6.4 0.00 0.00 0.00 36 1008.2
20260906080054 21 219 0.0 4.8 0.00 0.00 0.00 38 1008.2
20260906074549 21 219 0.0 4.8 0.00 0.00 0.00 37 1008.1
20260906073056 21 219 0.0 1.6 0.00 0.00 0.00 34 1008.0
20260906071546 21 219 0.0 3.2 0.00 0.00 0.00 33 1008.0
20260906070055 21 219 0.0 4.8 0.00 0.00 0.00 33 1008.1
20260906064544 21 219 3.2 6.4 0.00 0.00 0.00 35 1008.1
20260906063042 22 226 0.0 3.2 0.00 0.00 0.00 36 1008.1
20260906061545 23 226 0.0 4.8 0.00 0.00 0.00 28 1007.9
20260906060036 25 227 4.8 9.7 0.00 0.00 0.00 22 1007.8
20260906054535 25 223 3.2 8.0 0.00 0.00 0.00 24 1007.7
20260906053038 25 223 4.8 8.0 0.00 0.00 0.00 26 1007.8
20260906051533 25 223 3.2 9.7 0.00 0.00 0.00 25 1007.8
20260906050035 24 225 3.2 8.0 0.00 0.00 0.00 29 1007.7
20260906044534 24 227 3.2 6.4 0.00 0.00 0.00 33 1007.7
20260906043041 25 263 1.6 6.4 0.00 0.00 0.00 33 1007.6
20260906041533 25 265 3.2 6.4 0.00 0.00 0.00 34 1007.4
20260906040031 25 265 0.0 0.0 0.00 0.00 0.00 33 1007.3
20260906034530 25 265 0.0 1.6 0.00 0.00 0.00 31 1007.2
20260906033030 26 265 1.6 4.8 0.00 0.00 0.00 31 1006.9
20260906031529 26 265 4.8 14.5 0.00 0.00 0.00 29 1006.6
20260906030029 27 280 3.2 9.7 0.00 0.00 0.00 28 1006.3
20260906024529 27 268 3.2 9.7 0.00 0.00 0.00 27 1006.2
20260906023027 27 271 4.8 11.3 0.00 0.00 0.00 27 1006.1
20260906021528 28 269 6.4 12.9 0.00 0.00 0.00 28 1005.9
20260906020028 28 279 6.4 11.3 0.00 0.00 0.00 27 1005.6
20260906014540 28 294 4.8 8.0 0.00 0.00 0.00 27 1005.5
20260906013029 29 304 6.4 8.0 0.00 0.00 0.00 26 1005.6
20260906011529 30 307 6.4 12.9 0.00 0.00 0.00 25 1005.5
20260906010026 30 318 9.7 14.5 0.00 0.00 0.00 25 1005.5
20260906004525 30 317 9.7 16.1 0.00 0.00 0.00 25 1005.5
20260906003025 31 321 8.0 14.5 0.00 0.00 0.00 25 1005.6
20260906001524 31 318 9.7 17.7 0.00 0.00 0.00 24 1005.6
20260906000024 31 308 12.9 19.3 0.00 0.00 0.00 24 1005.4
20260905234524 31 316 14.5 20.9 0.00 0.00 0.00 24 1005.5
20260905233022 32 313 11.3 20.9 0.00 0.00 0.00 24 1005.6